This is the latest recevied weather packets stored in our database for station/object WE8L. If no packets are shown the sender has not sent any weather packets the latest 1 day(s).
| Time | Temp. | Humidity | Pressure | Rain* | Wind** | Luminosity | Snow |
|---|---|---|---|---|---|---|---|
| 1778034514 | 15° C | 99% | 1009.8 hPa | 3.05 mm | 0 m/s | 0 W/m² | - |
| 1778034212 | 15° C | 99% | 1010.1 hPa | 3.05 mm | 0 m/s | 0 W/m² | - |
| 1778033910 | 15° C | 99% | 1010 hPa | 0 mm | 0 m/s | 0 W/m² | - |
| 1778033606 | 15° C | 99% | 1010.1 hPa | 1.27 mm | 0 m/s | 0 W/m² | - |
| 1778033302 | 15° C | 99% | 1010.1 hPa | 0 mm | 0 m/s | 0 W/m² | - |
| 1778033001 | 15° C | 99% | 1010 hPa | 3.05 mm | 0 m/s | 0 W/m² | - |
| 1778032698 | 15° C | 99% | 1009.7 hPa | 4.83 mm | 0 m/s | 0 W/m² | - |
| 1778032395 | 15° C | 99% | 1009.8 hPa | 3.56 mm | 0 m/s | 0 W/m² | - |
| 1778032092 | 15° C | 99% | 1009.8 hPa | 1.78 mm | 0 m/s | 0 W/m² | - |
| 1778031789 | 15° C | 99% | 1010 hPa | 0 mm | 0 m/s | 0 W/m² | - |
| 1778031486 | 15° C | 99% | 1009.9 hPa | 0 mm | 0 m/s | 0 W/m² | - |
| 1778031183 | 15° C | 98% | 1010 hPa | 1.27 mm | 0 m/s | 0 W/m² | - |
| 1778030879 | 15° C | 98% | 1009.8 hPa | 1.27 mm | 0 m/s | 0 W/m² | - |
| 1778030576 | 15° C | 98% | 1009.7 hPa | 0 mm | 0 m/s | 0 W/m² | - |
| 1778030274 | 15° C | 98% | 1009.5 hPa | 0 mm | 0 m/s | 0 W/m² | - |
| 1778029970 | 15° C | 98% | 1009.5 hPa | 1.78 mm | 0 m/s | 0 W/m² | - |
| 1778029668 | 15.56° C | 98% | 1009.6 hPa | 4.83 mm | 0 m/s | 0 W/m² | - |
| 1778029365 | 15.56° C | 98% | 1009.7 hPa | 4.32 mm | 0 m/s | 0 W/m² | - |
| 1778029062 | 15.56° C | 98% | 1009.9 hPa | 4.32 mm | 0 m/s | 0 W/m² | - |
| 1778028759 | 15.56° C | 98% | 1009.8 hPa | 4.32 mm | 0 m/s | 0 W/m² | - |
| 1778028455 | 15.56° C | 98% | 1009.9 hPa | 3.05 mm | 0 m/s | 0 W/m² | - |
| 1778028153 | 15.56° C | 98% | 1009.9 hPa | 0 mm | 0 m/s | 0 W/m² | - |
| 1778027848 | 15.56° C | 98% | 1009.7 hPa | 0 mm | 0 m/s | 0 W/m² | - |
| 1778027545 | 15.56° C | 98% | 1009.5 hPa | 0 mm | 0 m/s | 0 W/m² | - |
| 1778027241 | 15.56° C | 98% | 1009.5 hPa | 1.78 mm | 0 m/s | 0 W/m² | - |
* Rain latest hour (hover to see other rain measurements)
** Current wind speed in m/s (hover to see current wind gust speed)